Regional Weather Roundup
Issued by NWS

Home | Current Version | Previous Version | Text Only | Print | Product List | Glossary Off
Versions: 1 2 3 4 5 6 7 8 9 10 11 12 13 14 15 16 17 18 19 20 21 22 23 24 25 26 27 28 29 30 31 32 33 34 35 36 37 38 39 40 41 42 43 44 45 46 47 48 49 50

000
ASUS43 KMPX 170701
RWRMN
WEATHER ROUNDUP FOR MINNESOTA
NATIONAL WEATHER SERVICE TWIN CITIES/CHANHASSEN MN
200 AM CDT THU APR 17 2014


NOTE: "FAIR" INDICATES FEW OR NO CLOUDS BELOW 12,000 FEET WITH NO
SIGNIFICANT WEATHER AND/OR OBSTRUCTIONS TO VISIBILITY. N/A MEANS
CURRENT SKY AND/OR WEATHER CONDITIONS ARE NOT AVAILABLE.

MNZ060>063-068>070-170800-
   Twin Cities Metro

CITY           SKY/WX    TMP DP  RH WIND       PRES   REMARKS
TWIN CITIES    CLOUDY    28  28 100 N16G26    29.98R WCI  16
ST PAUL        CLOUDY    30  27  88 N16G23    29.99R WCI  19
CRYSTAL        MIX PCPN  29  25  85 N15G22    30.01R WCI  18
BLAINE         MIX PCPN  30  28  93 N18       30.01R WCI  18
EDEN PRAIRIE   CLOUDY    30  26  85 N18G24    29.97R WCI  18
LAKEVILLE      CLOUDY    28  28 100 N15G24    29.95R WCI  17
SOUTH ST PAUL  CLOUDY    32  32  99 N15G21    29.97R WCI  22
LAKE ELMO      FLURRIES  32  30  93 N12       29.98R WCI  23
$$
MNZ001>005-007-008-013>017-022>024-027-028-170800-
   Northwest Minnesota

CITY           SKY/WX    TMP DP  RH WIND       PRES   REMARKS
BEMIDJI        CLEAR     23  11  61 N5        30.22S WCI  17
HALLOCK        CLOUDY    25  12  58 NE9       30.33S WCI  15
ROSEAU         CLEAR     21  14  73 N3        30.31S
WARROAD        CLEAR     23   9  54 N6        30.31S WCI  16
THIEF RVR FALL CLEAR     27  10  50 N9        30.29R WCI  17
CROOKSTON      CLEAR     27  19  74 N7        30.30S WCI  19
FOSSTON        CLEAR     23  10  58 N7        30.25S WCI  15
DETROIT LAKES  CLEAR     27  19  74 CALM      30.23R
MOORHEAD       CLEAR     28  23  80 N6        30.26S WCI  22
PARK RAPIDS    CLEAR     23  18  81 N7        30.19R WCI  15
$$
MNZ006-009>011-018-025>026-170800-
   North Central Minnesota

CITY           SKY/WX    TMP DP  RH WIND       PRES   REMARKS
BAUDETTE       CLEAR     25   6  44 N7        30.28S WCI  17
FLAG ISLAND    CLEAR     21   7  53 N5        30.32R WCI  15
INTL FALLS     MOCLDY    25   8  48 N7        30.26S WCI  17
WASKISH        PTCLDY    25   9  50 N6        30.26S WCI  18
BIG FORK       PTCLDY    27  18  69 NE6       30.22S WCI  20
LONGVILLE      PTCLDY    23  19  86 N3        30.18F
GRAND RAPIDS   CLOUDY    25  18  74 N7        30.17F WCI  17
CRANE LAKE     PTCLDY    25  12  58 CALM      30.27S
ORR            MOCLDY    25  14  63 CALM      30.20S
COOK           CLOUDY    25  18  74 NE6       30.21S WCI  18
$$
MNZ012-019>021-037-170800-
   Northeast Minnesota

CITY           SKY/WX    TMP DP  RH WIND       PRES   REMARKS
DULUTH         LGT SNOW  28  24  85 NE17G25   30.10F VSB 3/4 WCI  16
ELY            LGT SNOW  23  21  93 NE7       30.19F WCI  15
HIBBING        LGT SNOW  25  20  81 NE9       30.16F WCI  15
EVELETH        LGT SNOW  25  21  86 NE10      30.17F WCI  15
DULUTH HARBOR  LGT SNOW  30  28  93 NE23G30   30.14F WCI  17
TWO HARBORS    LGT SNOW  28  23  80 NE13G24   30.12F WCI  18
SILVER BAY     LGT SNOW  27  27 100 NE13G24   30.14F VSB 1   WCI  16
GRAND MARAIS     N/A     29  26  89 NE16G25   30.24F WCI  17
G MARAIS ARPRT LGT SNOW  25  19  80 NE14G23   30.19F VSB 1   WCI  13
$$
MNZ029>031-032-039>041-046>048-054>057-064-170800-
   West Central Minnesota

CITY           SKY/WX    TMP DP  RH WIND       PRES   REMARKS
FERGUS FALLS   CLEAR     27  18  69 N7        30.20S WCI  19
WHEATON        CLEAR     27  21  80 N6        30.24S WCI  20
MORRIS         CLEAR     21  18  86 N12       30.18R WCI   9
ALEXANDRIA     CLEAR     23  18  81 N13       30.15S WCI  11
ELBOW LAKE     FAIR      23  19  85 N9        30.19S WCI  13
WADENA         CLEAR     21  18  86 N7        30.18R WCI  13
GLENWOOD       CLEAR     21  19  93 N12       30.14R WCI   9
APPLETON       CLEAR     21  18  86 N9        30.18S WCI  11
BENSON         CLEAR     23  18  80 N8        30.16R WCI  14
ORTONVILLE     CLEAR     21  18  86 N9        30.20R WCI  11
MADISON        CLEAR     27  21  80 NW13      30.19R WCI  16
WILLMAR        MOCLDY    28  21  74 N15       30.13R WCI  17
$$
MNZ033>034-036-042>043-049>051-058-059-170800-
   Central Minnesota

CITY           SKY/WX    TMP DP  RH WIND       PRES   REMARKS
ST CLOUD       CLOUDY    29  22  75 N12G20    30.09R WCI  19
SAUK CENTRE    FAIR      24  19  83 N10       30.13S WCI  13
PAYNESVILLE    CLOUDY    27  22  80 N12G22    30.11R WCI  17
AITKIN         CLOUDY    28  21  74 N10       30.13S WCI  19
PINE RIVER     CLEAR     23  19  86 N7        30.20S WCI  15
BRAINERD       CLOUDY    30  20  66 NE12      30.14F WCI  20
STAPLES        CLEAR     21  18  86 N9        30.17R WCI  11
LONG PRAIRIE   MOCLDY    23  19  86 N12       30.14R WCI  12
LITTLE FALLS   MOCLDY    27  21  80 N6        30.13S WCI  20
LITCHFIELD     CLOUDY    28  27  93 N15G21    30.08R WCI  17
BUFFALO        CLOUDY    29  25  83 N14G23    30.06R WCI  19
MAPLE LAKE     CLOUDY    30  27  87 N15G21    30.07S WCI  19
$$
MNZ037-044-045-052-053-170800-
   East Central Minnesota

CITY           SKY/WX    TMP DP  RH WIND       PRES   REMARKS
PRINCETON      CLOUDY    30  25  80 N15G23    30.07R WCI  19
MORA           CLOUDY    30  25  80 NE9       30.09R WCI  22
CAMBRIDGE      MIX PCPN  30  23  74 N9G16     30.03R WCI  22
RUSH CITY      CLOUDY    28  26  91 N13G18    30.05R WCI  18
MOOSE LAKE     LGT SNOW  28  27  93 NE12      30.08F WCI  18
HINCKLEY       LGT SNOW  30  28  93 N14G21    30.06S WCI  20
CLOQUET        LGT SNOW  27  25  93 NE10      30.11S WCI  17
MCGREGOR       CLOUDY    27  23  86 N12       30.14S WCI  16
$$
MNZ071>073-080-081-089-090-097-098-170800-
   Southwest Minnesota

CITY           SKY/WX    TMP DP  RH WIND       PRES   REMARKS
MONTEVIDEO     CLEAR     25  19  80 N12       30.17S WCI  14
GRANITE FALLS  CLOUDY    26  21  80 NW13      30.16R WCI  15
CANBY          CLEAR     23  20  89 NW9       30.19R WCI  13
MARSHALL       CLOUDY    28  19  69 N16       30.14R WCI  17
REDWOOD FALLS  CLOUDY    29  24  82 N14G21    30.11R WCI  18
OLIVIA         CLOUDY    30  27  86 N12       30.11R WCI  21
PIPESTONE      CLOUDY    27  23  86 N14G20    30.13R WCI  15
WINDOM         CLOUDY    28  25  86 NW21G26   30.08R WCI  15
WORTHINGTON    CLOUDY    28  19  69 N20G29    30.11R WCI  15
JACKSON        CLOUDY    30  27  86 N21G30    30.06R WCI  17
TRACY          CLOUDY    28  25  86 N16       30.12R WCI  17
SLAYTON        CLOUDY    27  25  92 NW17G24   30.12R WCI  14
$$
MNZ065>067-074>077-082>085-091>093-170800-
   South Central Minnesota

CITY           SKY/WX    TMP DP  RH WIND       PRES   REMARKS
MANKATO        CLOUDY    30  27  86 N22       30.00R WCI  17
NEW ULM        CLOUDY    28  27  93 N15G23    30.05R WCI  17
ST JAMES       CLOUDY    30  27  86 NW21G28   30.06R WCI  17
FAIRMONT       CLOUDY    28  25  86 NW24G30   30.04R WCI  14
GLENCOE        CLOUDY    31  25  79 N16       30.03R WCI  19
FARIBAULT      CLOUDY    34  30  86 NW22G29   29.94R WCI  22
OWATONNA       CLOUDY    34  30  86 NW23G30   29.92R WCI  22
WASECA         CLOUDY    34  32  93 NW23G33   29.97R WCI  22
ALBERT LEA     CLOUDY    32  32 100 NW13G24   29.93R WCI  22
$$
MNZ078>079-086>088-094>096-170800-
   Southeast Minnesota

CITY           SKY/WX    TMP DP  RH WIND       PRES   REMARKS
ROCHESTER      LGT RAIN  42  35  76 S10       29.83R
RED WING       LGT RAIN  43  39  87 NE5       29.90R
STANTON        CLOUDY    35  33  93 N17       29.91R FOG     WCI  24
DODGE CENTER   CLOUDY    41  41 100 NW14      29.84R FOG
WINONA         CLOUDY    48  32  53 SE10G17   29.87F
AUSTIN         CLOUDY    34  34 100 NW17G26   29.88R FOG     WCI  23
PRESTON        CLOUDY    45  32  61 S16G23    29.84R
$$
ABBREVIATIONS USED IN REMARKS
   TC - TEMPERATURES IN CELSIUS
  WCI - WIND CHILL INDEX
   HX - HEAT INDEX
  VSB - VISIBILITY
$$


USA.gov is the U.S. government's official web portal to all federal, state and local government web resources and services.